Dewpoint
53 52 53 53 54 54 54 53 53 54 54 54 55 55 55 56 57 57 57 57 57 57 58 58 59 60 51 40 30 51 72 71 62 58 57 41 35 36 36 33 35 33 33 35 39 40 48
53 52 53 53 53 53 53 53 53 53 54 54 54 55 56 56 56 57 57 57 57 57 57 58 59 60 50 34 32 53 42 50 49 51 48 40 35 34 34 33 33 33 31 34 39 43 58
53 52 53 53 53 53 53 52 53 54 54 54 54 55 56 56 56 57 57 57 56 57 57 59 60 53 39 32 30 41 44 46 47 50 40 36 35 33 33 32 33 33 29 33 38 38 55
54 53 52 52 52 52 52 53 53 54 53 54 55 55 56 56 56 56 57 56 56 57 59 61 60 48 36 25 27 32 44 44 45 48 44 36 32 34 35 34 31 31 30 32 37 37 33
53 52 52 53 52 53 53 53 53 53 53 55 55 55 56 56 56 56 56 55 56 59 61 59 50 44 23 35 17 24 35 40 43 44 42 35 33 35 35 33 30 32 28 34 30 33 31
52 52 53 53 52 53 52 52 53 54 54 55 56 56 56 55 55 55 54 55 56 58 57 48 41 32 23 17 9 19 28 28 30 31 33 33 33 32 31 28 27 30 33 34 30 30 31
52 53 53 52 53 52 52 53 53 54 55 55 56 56 55 55 55 54 52 49 44 45 45 29 26 18 13 13 14 19 25 26 26 30 31 32 29 29 29 29 30 29 27 29 30 30 30
52 53 52 52 53 53 53 53 53 54 55 55 56 55 55 55 54 53 51 45 37 37 33 29 29 14 23 21 19 18 22 24 25 23 22 24 25 25 25 26 26 26 27 27 30 30 30
53 52 52 52 52 52 53 53 55 55 56 56 55 55 55 54 53 51 44 41 36 35 32 27 19 19 19 20 19 9 15 20 19 19 17 17 17 19 16 18 21 23 20 21 23 26 28
54 52 52 52 52 52 52 53 55 55 55 54 54 55 54 53 49 43 40 39 36 36 34 23 16 15 16 17 14 15 12 16 15 15 13 12 12 12 11 12 17 16 16 18 18 20 20
55 53 53 55 55 54 54 55 54 54 54 54 54 54 53 52 44 39 42 35 37 36 29 22 17 21 18 15 16 15 14 12 11 10 9 9 8 9 8 5 7 14 13 13 15 16 18
56 54 55 55 55 55 54 54 54 54 53 53 54 53 52 48 47 41 38 36 35 29 23 19 20 17 15 12 17 16 12 8 9 9 9 8 5 3 3 5 6 6 7 13 10 10 11
55 55 55 55 55 54 54 54 54 53 53 53 52 52 51 48 39 37 37 36 26 24 23 21 17 11 16 11 15 14 14 8 9 10 11 10 7 5 4 7 5 6 3 7 10 8 8
55 56 56 56 56 55 54 55 55 53 53 52 52 51 50 44 41 38 38 34 29 18 17 18 17 15 12 12 11 10 14 10 11 8 8 9 7 9 4 7 5 6 4 4 17 9 8
56 57 57 57 56 56 56 56 55 55 54 53 52 49 47 39 39 39 37 29 21 22 19 20 17 17 15 12 12 13 13 13 12 11 12 9 11 9 10 7 7 8 6 6 3 3 3
57 57 57 57 57 56 56 56 55 54 53 52 49 43 38 38 38 37 32 30 24 26 26 22 18 17 17 16 14 13 15 14 12 12 13 12 13 13 13 8 6 6 7 2 5 17 14
57 57 57 57 57 57 56 56 55 54 53 51 48 42 36 34 36 34 28 25 21 24 28 22 18 18 18 18 17 15 15 15 15 20 19 17 14 15 14 13 14 10 10 8 2 6 12
56 56 56 56 56 57 56 55 54 53 52 48 46 43 36 34 31 28 25 23 31 25 27 26 27 27 21 17 19 18 17 19 22 23 25 21 17 17 16 15 15 15 11 11 8 14 10
56 56 57 56 56 56 56 55 54 52 52 49 47 43 35 31 27 25 25 22 26 24 26 24 23 22 24 22 23 22 19 29 29 27 34 31 29 21 14 13 17 15 17 16 10 6 19
57 56 56 57 56 56 56 55 53 52 52 50 47 35 36 33 33 37 33 25 25 25 28 26 28 26 25 25 25 26 24 24 27 27 55 42 27 27 19 21 24 26 25 24 14 12 11
56 56 56 56 56 56 56 55 53 52 52 49 44 45 39 30 28 30 30 28 22 25 26 27 27 25 27 26 25 25 25 25 28 47 35 30 25 24 21 21 21 20 23 24 25 24 21
56 56 56 56 57 57 56 55 54 52 51 48 44 39 38 38 36 32 32 30 29 24 27 26 27 27 27 28 30 30 30 31 26 34 32 33 32 28 27 24 23 21 23 23 23 24 23
56 56 55 56 56 57 56 56 54 52 50 43 42 42 36 36 27 28 26 28 28 28 31 29 31 30 29 34 35 34 32 32 29 30 30 29 28 28 27 26 26 27 26 24 26 22 22
56 55 55 55 55 57 57 56 55 53 51 50 45 44 40 29 27 25 26 26 27 29 30 29 30 35 35 35 34 32 29 28 26 25 24 28 29 28 25 26 22 22 24 24 27 27 28
57 56 55 55 56 57 57 57 56 54 52 48 46 45 43 36 30 26 25 28 27 29 29 28 29 29 28 28 29 28 27 28 26 25 25 25 26 25 24 23 25 23 22 21 23 26 26
56 56 55 55 55 57 57 57 56 54 53 48 45 45 44 40 32 37 32 29 27 27 27 30 31 30 30 28 26 28 21 25 25 25 23 21 25 28 28 25 24 26 25 26 25 26 29
57 55 55 55 55 56 56 57 56 55 53 50 48 44 43 40 38 38 36 36 34 30 27 32 32 33 31 27 24 24 23 27 26 28 30 29 32 31 30 28 27 29 34 28 26 33 38
57 56 56 56 56 56 56 56 56 55 55 51 48 48 42 38 37 37 36 37 38 37 34 39 35 32 29 28 26 24 24 25 26 29 30 32 31 28 30 32 29 39 38 38 44 42 42
57 57 57 56 56 56 56 57 57 56 55 53 48 46 46 42 35 37 36 35 37 38 37 35 34 35 34 33 30 31 28 30 34 28 32 28 30 32 34 32 43 41 39 42 40 44 46
Lifted_Index
16 16 16 16 16 16 16 16 16 17 17 17 17 17 17 16 16 16 17 17 17 17 16 16 15 13 11 9 9 8 6 5 4 3 3 4 4 4 2 2 2 2 3 2 -0 -1 -2
16 16 16 16 16 16 16 16 16 17 17 17 17 17 16 16 16 16 17 17 17 17 16 16 15 13 10 9 9 8 7 6 4 3 3 4 5 4 3 3 3 3 3 1 -1 -2 -2
16 16 16 16 17 17 17 17 17 17 17 17 17 17 16 16 16 16 16 17 17 17 16 15 14 12 10 10 9 8 7 6 5 4 4 5 5 5 4 4 3 3 2 0 -1 -1 -1
15 16 16 16 17 17 17 17 17 17 17 17 17 17 16 15 16 16 16 16 16 16 15 14 13 11 10 10 10 9 7 5 4 4 5 6 6 5 4 4 3 2 1 -0 -0 -0 0
16 16 16 16 17 17 17 17 17 17 17 17 17 16 15 15 15 15 16 16 15 15 13 12 11 10 10 10 10 10 8 6 5 5 5 6 6 5 4 3 2 0 -0 -0 -0 0 1
16 16 16 16 17 17 17 17 17 17 17 17 16 16 15 15 15 15 14 14 13 12 11 11 10 10 10 10 10 10 9 8 7 6 6 6 5 5 3 2 0 -0 -1 -1 -0 -0 0
16 16 16 16 17 17 17 17 17 17 16 16 16 16 15 15 15 14 12 11 10 9 9 9 9 9 9 10 10 10 9 8 8 7 6 6 5 4 3 1 -0 -1 -1 -0 -0 -0 -0
16 16 16 16 17 17 17 17 17 17 16 16 16 15 15 15 14 12 11 9 8 8 8 9 9 9 9 10 9 9 9 8 8 7 6 6 5 4 3 1 0 0 -0 -0 -1 -1 -0
15 16 16 16 17 17 17 17 17 16 16 16 16 15 15 14 13 11 9 8 9 8 8 8 9 9 9 9 9 8 8 8 7 7 6 5 4 3 3 2 2 1 1 -0 -1 -1 -0
14 15 16 16 16 17 17 17 16 16 16 16 15 15 14 13 11 9 8 8 9 8 7 7 8 9 9 9 8 7 8 7 7 6 6 5 4 3 3 3 3 2 1 0 0 -0 -0
13 14 15 15 16 16 16 16 16 16 16 16 15 14 14 13 10 8 8 9 8 7 5 6 7 8 8 8 7 7 7 7 7 6 5 5 4 4 4 4 3 3 2 2 1 1 0
12 13 14 14 15 15 16 16 16 16 16 16 15 14 14 12 10 9 8 8 7 5 4 5 7 7 7 7 7 7 7 7 7 6 5 4 4 4 4 4 4 4 3 2 2 1 0
11 12 12 13 14 14 15 15 16 16 16 15 14 14 13 12 10 9 8 7 5 3 3 5 6 6 6 6 6 6 7 6 6 5 4 3 3 3 4 4 4 3 3 2 0 -0 -0
11 11 11 12 12 13 14 14 15 15 15 14 13 13 12 11 10 9 8 6 4 2 3 4 5 5 5 5 5 5 5 5 5 4 3 1 1 1 3 3 3 3 2 0 -1 -1 -1
10 10 10 11 11 11 12 13 14 14 14 13 12 11 10 10 10 9 7 5 4 3 3 4 4 4 4 3 4 4 4 3 3 3 2 1 -0 0 1 2 3 3 2 0 -1 -1 -1
9 9 10 10 10 10 11 12 12 12 12 11 10 8 8 9 9 9 7 5 5 5 5 4 4 3 2 2 2 2 2 2 2 2 2 2 1 0 0 2 2 2 1 1 -0 -1 -1
9 9 9 9 9 9 10 10 11 10 10 9 7 6 7 8 9 8 7 6 6 6 6 5 4 3 2 1 0 1 1 0 1 2 3 2 1 0 -0 0 1 1 1 0 -0 -0 -1
8 8 8 8 8 9 9 9 9 9 8 7 5 5 6 8 8 7 7 6 6 6 6 6 5 4 3 1 0 0 -0 -0 1 2 3 2 1 0 -0 -0 -0 -0 -0 -0 -0 -1 -1
6 6 7 7 7 8 8 8 8 7 6 5 3 3 6 7 7 6 6 6 6 6 6 6 5 5 4 3 2 1 -0 0 1 2 3 2 1 1 -0 -0 -0 -0 -1 -1 -1 -1 -1
5 5 5 6 6 6 7 7 7 7 6 4 2 2 4 6 5 5 5 5 6 6 6 6 5 5 4 4 3 1 0 0 1 2 3 3 2 2 1 0 -0 -0 -0 -1 -1 -1 -1
5 5 5 5 5 5 6 6 7 6 5 3 2 2 3 4 4 4 4 5 5 6 6 6 5 5 4 4 3 1 0 0 0 1 2 2 2 2 2 1 0 -0 -0 -0 -1 -1 -1
5 5 5 4 4 5 5 5 6 6 5 3 2 2 3 4 4 4 5 5 5 5 5 5 5 4 4 3 2 1 1 0 0 1 1 1 1 2 2 1 0 0 -0 -0 -0 -0 -0
5 5 5 5 5 5 5 5 5 5 4 3 3 3 4 4 4 5 5 5 5 5 5 5 5 4 4 4 3 3 2 2 2 2 2 2 2 2 2 1 1 1 0 -0 -0 -0 -0
6 6 6 6 5 5 5 5 5 5 4 4 4 4 4 4 4 5 5 5 5 5 5 5 5 5 4 5 4 4 3 3 3 3 3 3 2 2 2 2 1 1 1 0 -0 -0 -0
6 6 6 6 6 6 6 6 6 6 6 5 5 5 4 4 4 5 5 6 6 6 6 6 6 6 5 5 5 4 4 4 4 3 3 2 2 2 1 1 1 1 1 0 -0 -0 -0
6 6 6 6 6 6 6 6 7 7 7 6 6 6 5 4 4 5 5 5 6 6 6 6 6 6 6 5 5 5 4 4 3 2 1 1 1 0 -0 -0 0 0 0 0 -0 -0 -1
5 5 5 5 6 6 6 7 7 8 9 8 7 7 7 6 5 5 5 5 5 5 5 5 5 5 5 5 5 4 4 3 3 2 1 1 0 -1 -1 -1 -0 -1 -1 -1 -1 -1 -1
5 5 5 5 5 5 6 7 7 9 9 9 7 7 7 7 6 6 6 6 5 5 4 4 4 4 5 5 4 4 4 3 3 2 2 1 0 -0 -0 -1 -1 -1 -1 -1 -1 -2 -2
5 5 5 5 5 5 6 6 7 9 10 9 7 7 7 7 7 7 7 6 6 5 4 4 4 4 4 4 4 4 3 3 3 2 2 2 1 0 0 -0 -1 -1 -1 -1 -1 -2 -2